Time,TemperatureF,DewpointF,PressureIn,WindDirection,WindDirectionDegrees,WindSpeedMPH,WindSpeedGustMPH,Humidity,HourlyPrecipIn,Conditions,Clouds,dailyrainin,SoftwareType,DateUTC
2013-07-17 02:17:00,76.1,45.0,-100.00,North,-999,0.0,7.6,33,0.00,,,-99.99,FreeWX-Wi 1.01,2013-07-17 09:17:00,
2013-07-17 02:22:00,68.5,38.3,-100.00,WSW,238,1.0,3.6,33,0.00,,,-99.99,FreeWX-Wi 1.01,2013-07-17 09:22:00,
2013-07-17 02:27:00,69.1,38.8,-100.00,WSW,245,1.0,5.8,33,0.00,,,-99.99,FreeWX-Wi 1.01,2013-07-17 09:27:00,
2013-07-17 05:52:00,69.1,38.8,-100.00,North,-999,0.0,4.0,33,0.00,,,-99.99,FreeWX-Wi 1.01,2013-07-17 12:52:00,
2013-07-17 05:57:00,69.1,38.8,-100.00,North,-999,0.0,6.3,33,0.00,,,-99.99,FreeWX-Wi 1.01,2013-07-17 12:57:00,
2013-07-17 07:48:00,62.2,34.9,-100.00,North,-999,0.0,6.3,36,0.00,,,-99.99,FreeWX-Wi 1.01,2013-07-17 14:48:00,
2013-07-17 07:53:00,63.0,34.9,-100.00,North,-999,0.0,3.6,35,0.00,,,-99.99,FreeWX-Wi 1.01,2013-07-17 14:53:00,
2013-07-17 07:58:00,63.1,35.1,-100.00,North,-999,0.0,4.9,35,0.00,,,-99.99,FreeWX-Wi 1.01,2013-07-17 14:58:00,
2013-07-17 08:13:00,63.3,35.2,-100.00,ESE,123,1.0,3.6,35,0.00,,,-99.99,FreeWX-Wi 1.01,2013-07-17 15:13:00,
2013-07-17 08:18:00,63.1,35.1,-100.00,SE,130,1.0,5.4,35,0.00,,,-99.99,FreeWX-Wi 1.01,2013-07-17 15:18:00,
2013-07-17 08:28:00,63.3,36.0,-100.00,SE,142,1.0,0.0,36,0.00,,,-99.99,FreeWX-Wi 1.01,2013-07-17 15:28:00,
2013-07-17 08:38:00,63.3,36.0,-100.00,North,-999,0.0,0.0,36,0.00,,,-99.99,FreeWX-Wi 1.01,2013-07-17 15:38:00,
2013-07-17 08:43:00,63.9,35.6,-100.00,North,-999,0.0,0.0,35,0.00,,,-99.99,FreeWX-Wi 1.01,2013-07-17 15:43:00,
2013-07-17 08:53:00,64.6,36.3,-100.00,North,-999,0.0,3.6,35,0.00,,,-99.99,FreeWX-Wi 1.01,2013-07-17 15:53:00,
2013-07-17 09:03:00,65.3,36.1,-100.00,North,-999,0.0,0.0,34,0.00,,,-99.99,FreeWX-Wi 1.01,2013-07-17 16:03:00,
2013-07-17 09:08:00,65.3,36.1,-100.00,North,-999,0.0,4.0,34,0.00,,,-99.99,FreeWX-Wi 1.01,2013-07-17 16:08:00,
2013-07-17 09:13:00,65.1,36.1,-100.00,North,-999,0.0,3.1,34,0.00,,,-99.99,FreeWX-Wi 1.01,2013-07-17 16:13:00,
2013-07-17 09:18:00,65.3,36.1,-100.00,North,-999,0.0,4.0,34,0.00,,,-99.99,FreeWX-Wi 1.01,2013-07-17 16:18:00,
2013-07-17 09:23:00,65.5,36.3,-100.00,North,-999,0.0,3.1,34,0.00,,,-99.99,FreeWX-Wi 1.01,2013-07-17 16:23:00,
2013-07-17 09:28:00,65.7,36.5,-100.00,North,-999,0.0,4.0,34,0.00,,,-99.99,FreeWX-Wi 1.01,2013-07-17 16:28:00,
2013-07-17 09:33:00,66.0,36.9,-100.00,North,-999,0.0,0.0,34,0.00,,,-99.99,FreeWX-Wi 1.01,2013-07-17 16:33:00,
2013-07-17 09:38:00,66.2,37.0,-100.00,North,-999,0.0,5.8,34,0.00,,,-99.99,FreeWX-Wi 1.01,2013-07-17 16:38:00,
2013-07-17 09:43:00,66.2,37.0,-100.00,ESE,114,1.0,6.3,34,0.00,,,-99.99,FreeWX-Wi 1.01,2013-07-17 16:43:00,
2013-07-17 09:48:00,66.4,37.2,-100.00,ESE,117,1.0,4.9,34,0.00,,,-99.99,FreeWX-Wi 1.01,2013-07-17 16:48:00,
2013-07-17 09:53:00,66.7,37.4,-100.00,SE,124,1.0,4.5,34,0.00,,,-99.99,FreeWX-Wi 1.01,2013-07-17 16:53:00,
2013-07-17 09:58:00,66.7,37.4,-100.00,SSE,150,1.0,4.0,34,0.00,,,-99.99,FreeWX-Wi 1.01,2013-07-17 16:58:00,
2013-07-17 10:03:00,66.2,37.0,-100.00,SSE,161,1.0,5.4,34,0.00,,,-99.99,FreeWX-Wi 1.01,2013-07-17 17:03:00,
2013-07-17 10:08:00,66.9,37.6,-100.00,SSE,165,1.0,4.0,34,0.00,,,-99.99,FreeWX-Wi 1.01,2013-07-17 17:08:00,
2013-07-17 10:13:00,66.9,37.6,-100.00,SSE,160,1.0,6.7,34,0.00,,,-99.99,FreeWX-Wi 1.01,2013-07-17 17:13:00,
2013-07-17 10:18:00,66.7,37.4,-100.00,SSE,156,1.0,5.8,34,0.00,,,-99.99,FreeWX-Wi 1.01,2013-07-17 17:18:00,
2013-07-17 10:23:00,66.7,37.4,-100.00,SE,146,1.0,5.4,34,0.00,,,-99.99,FreeWX-Wi 1.01,2013-07-17 17:23:00,
2013-07-17 10:28:00,66.6,37.4,-100.00,SE,136,1.0,5.8,34,0.00,,,-99.99,FreeWX-Wi 1.01,2013-07-17 17:28:00,
2013-07-17 10:33:00,67.3,37.9,-100.00,SE,142,1.0,0.0,34,0.00,,,-99.99,FreeWX-Wi 1.01,2013-07-17 17:33:00,
2013-07-17 10:38:00,68.0,37.8,-100.00,SE,141,1.0,4.9,33,0.00,,,-99.99,FreeWX-Wi 1.01,2013-07-17 17:38:00,
2013-07-17 10:43:00,68.0,37.8,-100.00,SSE,147,1.0,6.3,33,0.00,,,-99.99,FreeWX-Wi 1.01,2013-07-17 17:43:00,
2013-07-17 10:48:00,68.5,38.3,-100.00,SSE,151,1.0,4.9,33,0.00,,,-99.99,FreeWX-Wi 1.01,2013-07-17 17:48:00,
2013-07-17 10:53:00,68.7,38.5,-100.00,South,170,1.0,3.1,33,0.00,,,-99.99,FreeWX-Wi 1.01,2013-07-17 17:53:00,
2013-07-17 10:58:00,69.6,39.2,-100.00,South,187,1.0,4.0,33,0.00,,,-99.99,FreeWX-Wi 1.01,2013-07-17 17:58:00,
2013-07-17 11:03:00,69.3,38.8,-100.00,South,186,1.0,5.4,33,0.00,,,-99.99,FreeWX-Wi 1.01,2013-07-17 18:03:00,
2013-07-17 11:08:00,68.5,38.3,-100.00,SSW,206,1.0,4.9,33,0.00,,,-99.99,FreeWX-Wi 1.01,2013-07-17 18:08:00,
2013-07-17 11:13:00,68.9,38.7,-100.00,SW,220,1.0,2.2,33,0.00,,,-99.99,FreeWX-Wi 1.01,2013-07-17 18:13:00,
2013-07-17 11:18:00,69.1,38.8,-100.00,SW,221,1.0,4.9,33,0.00,,,-99.99,FreeWX-Wi 1.01,2013-07-17 18:18:00,
2013-07-17 11:23:00,68.9,38.7,-100.00,SW,235,1.0,6.3,33,0.00,,,-99.99,FreeWX-Wi 1.01,2013-07-17 18:23:00,
2013-07-17 11:28:00,69.3,38.8,-100.00,WSW,254,1.0,3.6,33,0.00,,,-99.99,FreeWX-Wi 1.01,2013-07-17 18:28:00,
2013-07-17 11:33:00,69.3,38.8,-100.00,West,273,1.0,4.9,33,0.00,,,-99.99,FreeWX-Wi 1.01,2013-07-17 18:33:00,
2013-07-17 11:38:00,69.8,38.7,-100.00,West,263,1.0,4.9,32,0.00,,,-99.99,FreeWX-Wi 1.01,2013-07-17 18:38:00,
2013-07-17 11:43:00,70.7,40.1,-100.00,West,266,1.0,3.1,33,0.00,,,-99.99,FreeWX-Wi 1.01,2013-07-17 18:43:00,
2013-07-17 11:48:00,71.6,40.1,-100.00,North,-999,0.0,2.7,32,0.00,,,-99.99,FreeWX-Wi 1.01,2013-07-17 18:48:00,
2013-07-17 11:53:00,71.8,40.3,-100.00,WNW,294,1.0,8.1,32,0.00,,,-99.99,FreeWX-Wi 1.01,2013-07-17 18:53:00,
2013-07-17 11:58:00,71.8,40.3,-100.00,SSW,200,1.0,4.0,32,0.00,,,-99.99,FreeWX-Wi 1.01,2013-07-17 18:58:00,
2013-07-17 12:03:00,71.4,40.1,-100.00,North,-999,0.0,3.6,32,0.00,,,-99.99,FreeWX-Wi 1.01,2013-07-17 19:03:00,
2013-07-17 12:08:00,72.0,40.5,-100.00,North,-999,0.0,4.9,32,0.00,,,-99.99,FreeWX-Wi 1.01,2013-07-17 19:08:00,
2013-07-17 12:13:00,71.1,39.7,-100.00,SE,126,1.0,5.8,32,0.00,,,-99.99,FreeWX-Wi 1.01,2013-07-17 19:13:00,
2013-07-17 12:18:00,70.2,38.8,-100.00,SE,126,1.0,4.0,32,0.00,,,-99.99,FreeWX-Wi 1.01,2013-07-17 19:18:00,
2013-07-17 12:23:00,70.2,38.8,-100.00,SE,138,1.0,6.3,32,0.00,,,-99.99,FreeWX-Wi 1.01,2013-07-17 19:23:00,
2013-07-17 12:28:00,69.8,38.7,-100.00,SSE,151,1.0,5.8,32,0.00,,,-99.99,FreeWX-Wi 1.01,2013-07-17 19:28:00,
2013-07-17 12:33:00,70.5,39.2,-100.00,SSE,148,1.0,5.4,32,0.00,,,-99.99,FreeWX-Wi 1.01,2013-07-17 19:33:00,
2013-07-17 12:38:00,71.8,40.3,-100.00,SSE,160,1.0,6.3,32,0.00,,,-99.99,FreeWX-Wi 1.01,2013-07-17 19:38:00,
2013-07-17 12:43:00,71.1,39.7,-100.00,SSW,205,1.0,5.8,32,0.00,,,-99.99,FreeWX-Wi 1.01,2013-07-17 19:43:00,
2013-07-17 12:48:00,70.2,38.8,-100.00,WSW,242,2.0,5.8,32,0.00,,,-99.99,FreeWX-Wi 1.01,2013-07-17 19:48:00,
2013-07-17 12:53:00,72.0,40.5,-100.00,SW,235,1.0,3.6,32,0.00,,,-99.99,FreeWX-Wi 1.01,2013-07-17 19:53:00,
2013-07-17 12:58:00,71.2,39.9,-100.00,SW,231,1.0,5.4,32,0.00,,,-99.99,FreeWX-Wi 1.01,2013-07-17 19:58:00,
2013-07-17 13:03:00,72.3,40.8,-100.00,SSW,203,2.0,7.2,32,0.00,,,-99.99,FreeWX-Wi 1.01,2013-07-17 20:03:00,
2013-07-17 13:08:00,73.2,41.5,-100.00,SSW,209,1.0,5.8,32,0.00,,,-99.99,FreeWX-Wi 1.01,2013-07-17 20:08:00,
2013-07-17 13:13:00,73.6,41.0,-100.00,SW,225,2.0,5.8,31,0.00,,,-99.99,FreeWX-Wi 1.01,2013-07-17 20:13:00,
2013-07-17 13:18:00,74.1,41.5,-100.00,WSW,245,2.0,5.8,31,0.00,,,-99.99,FreeWX-Wi 1.01,2013-07-17 20:18:00,
2013-07-17 13:23:00,74.1,41.5,-100.00,West,262,2.0,5.4,31,0.00,,,-99.99,FreeWX-Wi 1.01,2013-07-17 20:23:00,
2013-07-17 13:28:00,76.5,43.5,-100.00,West,278,2.0,5.8,31,0.00,,,-99.99,FreeWX-Wi 1.01,2013-07-17 20:28:00,
2013-07-17 13:33:00,73.9,41.4,-100.00,WNW,294,2.0,5.4,31,0.00,,,-99.99,FreeWX-Wi 1.01,2013-07-17 20:33:00,
2013-07-17 13:38:00,74.7,42.1,-100.00,WNW,301,2.0,4.0,31,0.00,,,-99.99,FreeWX-Wi 1.01,2013-07-17 20:38:00,
2013-07-17 13:43:00,76.6,43.7,-100.00,NW,317,2.0,4.9,31,0.00,,,-99.99,FreeWX-Wi 1.01,2013-07-17 20:43:00,
2013-07-17 13:48:00,77.0,44.1,-100.00,NW,317,2.0,9.2,31,0.00,,,-99.99,FreeWX-Wi 1.01,2013-07-17 20:48:00,
2013-07-17 13:53:00,77.5,44.4,-100.00,NNW,327,2.0,5.8,31,0.00,,,-99.99,FreeWX-Wi 1.01,2013-07-17 20:53:00,
2013-07-17 13:58:00,77.2,44.2,-100.00,NNW,333,1.0,4.9,31,0.00,,,-99.99,FreeWX-Wi 1.01,2013-07-17 20:58:00,
2013-07-17 14:03:00,77.4,44.4,-100.00,North,359,1.0,5.4,31,0.00,,,-99.99,FreeWX-Wi 1.01,2013-07-17 21:03:00,
2013-07-17 14:08:00,77.9,44.8,-100.00,NNE,32,1.0,5.8,31,0.00,,,-99.99,FreeWX-Wi 1.01,2013-07-17 21:08:00,
2013-07-17 14:13:00,77.0,44.1,-100.00,WSW,249,1.0,4.9,31,0.00,,,-99.99,FreeWX-Wi 1.01,2013-07-17 21:13:00,
2013-07-17 14:18:00,76.8,43.9,-100.00,South,175,1.0,5.4,31,0.00,,,-99.99,FreeWX-Wi 1.01,2013-07-17 21:18:00,
2013-07-17 14:23:00,74.1,41.5,-100.00,WSW,245,2.0,4.9,31,0.00,,,-99.99,FreeWX-Wi 1.01,2013-07-17 21:23:00,
2013-07-17 14:28:00,73.9,41.4,-100.00,West,268,1.0,5.4,31,0.00,,,-99.99,FreeWX-Wi 1.01,2013-07-17 21:28:00,
2013-07-17 14:33:00,73.0,41.4,-100.00,West,280,1.0,4.0,32,0.00,,,-99.99,FreeWX-Wi 1.01,2013-07-17 21:33:00,
2013-07-17 14:38:00,73.0,41.4,-100.00,WNW,298,2.0,4.0,32,0.00,,,-99.99,FreeWX-Wi 1.01,2013-07-17 21:38:00,
2013-07-17 14:43:00,73.2,41.5,-100.00,WNW,287,1.0,4.0,32,0.00,,,-99.99,FreeWX-Wi 1.01,2013-07-17 21:43:00,
2013-07-17 14:48:00,73.2,41.5,-100.00,West,280,1.0,5.4,32,0.00,,,-99.99,FreeWX-Wi 1.01,2013-07-17 21:48:00,
2013-07-17 14:53:00,73.4,41.0,-100.00,West,267,1.0,4.0,31,0.00,,,-99.99,FreeWX-Wi 1.01,2013-07-17 21:53:00,
2013-07-17 14:58:00,73.8,41.2,-100.00,WNW,285,1.0,3.1,31,0.00,,,-99.99,FreeWX-Wi 1.01,2013-07-17 21:58:00,
2013-07-17 15:03:00,73.8,41.2,-100.00,North,-999,0.0,3.1,31,0.00,,,-99.99,FreeWX-Wi 1.01,2013-07-17 22:03:00,
2013-07-17 15:08:00,73.2,41.5,-100.00,North,-999,0.0,4.9,32,0.00,,,-99.99,FreeWX-Wi 1.01,2013-07-17 22:08:00,
2013-07-17 15:13:00,73.4,41.0,-100.00,North,-999,0.0,3.1,31,0.00,,,-99.99,FreeWX-Wi 1.01,2013-07-17 22:13:00,
2013-07-17 15:18:00,72.7,41.2,-100.00,North,-999,0.0,3.6,32,0.00,,,-99.99,FreeWX-Wi 1.01,2013-07-17 22:18:00,
2013-07-17 15:23:00,73.6,41.9,-100.00,West,274,1.0,6.3,32,0.00,,,-99.99,FreeWX-Wi 1.01,2013-07-17 22:23:00,
2013-07-17 15:28:00,72.7,41.2,-100.00,West,266,1.0,3.6,32,0.00,,,-99.99,FreeWX-Wi 1.01,2013-07-17 22:28:00,
2013-07-17 15:33:00,73.0,41.4,-100.00,WSW,254,1.0,4.9,32,0.00,,,-99.99,FreeWX-Wi 1.01,2013-07-17 22:33:00,
2013-07-17 15:38:00,73.2,41.5,-100.00,West,280,1.0,5.4,32,0.00,,,-99.99,FreeWX-Wi 1.01,2013-07-17 22:38:00,
2013-07-17 15:43:00,73.8,41.2,-100.00,West,277,1.0,4.0,31,0.00,,,-99.99,FreeWX-Wi 1.01,2013-07-17 22:43:00,
2013-07-17 15:48:00,73.4,41.0,-100.00,SSE,148,1.0,4.9,31,0.00,,,-99.99,FreeWX-Wi 1.01,2013-07-17 22:48:00,
2013-07-17 15:53:00,73.6,41.0,-100.00,South,179,1.0,4.0,31,0.00,,,-99.99,FreeWX-Wi 1.01,2013-07-17 22:53:00,
2013-07-17 15:58:00,74.1,41.5,-100.00,South,184,1.0,4.0,31,0.00,,,-99.99,FreeWX-Wi 1.01,2013-07-17 22:58:00,
2013-07-17 16:03:00,73.6,41.0,-100.00,North,-999,0.0,3.6,31,0.00,,,-99.99,FreeWX-Wi 1.01,2013-07-17 23:03:00,
2013-07-17 16:08:00,73.0,41.4,-100.00,North,-999,0.0,3.1,32,0.00,,,-99.99,FreeWX-Wi 1.01,2013-07-17 23:08:00,
2013-07-17 16:13:00,73.2,41.5,-100.00,North,-999,0.0,0.0,32,0.00,,,-99.99,FreeWX-Wi 1.01,2013-07-17 23:13:00,
2013-07-17 16:18:00,73.2,41.5,-100.00,North,-999,0.0,0.0,32,0.00,,,-99.99,FreeWX-Wi 1.01,2013-07-17 23:18:00,
2013-07-17 16:23:00,73.0,41.4,-100.00,North,-999,0.0,3.1,32,0.00,,,-99.99,FreeWX-Wi 1.01,2013-07-17 23:23:00,
2013-07-17 16:28:00,73.0,41.4,-100.00,North,-999,0.0,3.1,32,0.00,,,-99.99,FreeWX-Wi 1.01,2013-07-17 23:28:00,
2013-07-17 16:33:00,73.0,41.4,-100.00,North,-999,0.0,0.0,32,0.00,,,-99.99,FreeWX-Wi 1.01,2013-07-17 23:33:00,
2013-07-17 16:38:00,73.0,41.4,-100.00,North,-999,0.0,0.0,32,0.00,,,-99.99,FreeWX-Wi 1.01,2013-07-17 23:38:00,
2013-07-17 16:43:00,72.7,41.2,-100.00,North,-999,0.0,3.6,32,0.00,,,-99.99,FreeWX-Wi 1.01,2013-07-17 23:43:00,
2013-07-17 16:48:00,71.8,40.3,-100.00,North,-999,0.0,6.7,32,0.00,,,-99.99,FreeWX-Wi 1.01,2013-07-17 23:48:00,
2013-07-17 16:53:00,71.4,40.1,-100.00,North,-999,0.0,3.6,32,0.00,,,-99.99,FreeWX-Wi 1.01,2013-07-17 23:53:00,
2013-07-17 16:58:00,72.0,40.5,-100.00,North,-999,0.0,2.7,32,0.00,,,-99.99,FreeWX-Wi 1.01,2013-07-17 23:58:00,
2013-07-17 17:03:00,72.1,40.6,-100.00,North,-999,0.0,0.0,32,0.00,,,-99.99,FreeWX-Wi 1.01,2013-07-18 00:03:00,
2013-07-17 17:08:00,72.1,40.6,-100.00,North,-999,0.0,5.4,32,0.00,,,-99.99,FreeWX-Wi 1.01,2013-07-18 00:08:00,
2013-07-17 17:13:00,72.3,40.8,-100.00,North,-999,0.0,0.0,32,0.00,,,-99.99,FreeWX-Wi 1.01,2013-07-18 00:13:00,
2013-07-17 17:18:00,72.1,40.6,-100.00,North,-999,0.0,0.0,32,0.00,,,-99.99,FreeWX-Wi 1.01,2013-07-18 00:18:00,
2013-07-17 17:23:00,72.5,41.0,-100.00,North,-999,0.0,0.0,32,0.00,,,-99.99,FreeWX-Wi 1.01,2013-07-18 00:23:00,
2013-07-17 17:28:00,72.5,41.0,-100.00,North,-999,0.0,3.1,32,0.00,,,-99.99,FreeWX-Wi 1.01,2013-07-18 00:28:00,
2013-07-17 17:33:00,72.3,40.8,-100.00,North,-999,0.0,3.1,32,0.00,,,-99.99,FreeWX-Wi 1.01,2013-07-18 00:33:00,
2013-07-17 17:38:00,72.0,40.5,-100.00,North,-999,0.0,0.0,32,0.00,,,-99.99,FreeWX-Wi 1.01,2013-07-18 00:38:00,
2013-07-17 17:43:00,71.4,40.1,-100.00,North,-999,0.0,4.9,32,0.00,,,-99.99,FreeWX-Wi 1.01,2013-07-18 00:43:00,
2013-07-17 17:48:00,71.8,40.3,-100.00,North,-999,0.0,4.9,32,0.00,,,-99.99,FreeWX-Wi 1.01,2013-07-18 00:48:00,
2013-07-17 17:53:00,72.0,40.5,-100.00,North,-999,0.0,4.0,32,0.00,,,-99.99,FreeWX-Wi 1.01,2013-07-18 00:53:00,
2013-07-17 17:58:00,72.0,40.5,-100.00,North,-999,0.0,0.0,32,0.00,,,-99.99,FreeWX-Wi 1.01,2013-07-18 00:58:00,
2013-07-17 18:03:00,72.1,40.6,-100.00,North,-999,0.0,2.7,32,0.00,,,-99.99,FreeWX-Wi 1.01,2013-07-18 01:03:00,
2013-07-17 18:08:00,71.8,40.3,-100.00,North,-999,0.0,3.6,32,0.00,,,-99.99,FreeWX-Wi 1.01,2013-07-18 01:08:00,
2013-07-17 18:13:00,71.8,40.3,-100.00,North,-999,0.0,3.1,32,0.00,,,-99.99,FreeWX-Wi 1.01,2013-07-18 01:13:00,
2013-07-17 18:18:00,71.4,40.1,-100.00,North,-999,0.0,2.7,32,0.00,,,-99.99,FreeWX-Wi 1.01,2013-07-18 01:18:00,
2013-07-17 18:23:00,71.4,40.1,-100.00,North,-999,0.0,0.0,32,0.00,,,-99.99,FreeWX-Wi 1.01,2013-07-18 01:23:00,
2013-07-17 18:28:00,71.1,39.7,-100.00,North,-999,0.0,0.0,32,0.00,,,-99.99,FreeWX-Wi 1.01,2013-07-18 01:28:00,
2013-07-17 18:33:00,71.2,39.9,-100.00,North,-999,0.0,2.7,32,0.00,,,-99.99,FreeWX-Wi 1.01,2013-07-18 01:33:00,
2013-07-17 18:38:00,71.1,39.7,-100.00,North,-999,0.0,3.6,32,0.00,,,-99.99,FreeWX-Wi 1.01,2013-07-18 01:38:00,
2013-07-17 18:43:00,71.1,39.7,-100.00,North,-999,0.0,2.7,32,0.00,,,-99.99,FreeWX-Wi 1.01,2013-07-18 01:43:00,
2013-07-17 18:48:00,70.9,39.6,-100.00,North,-999,0.0,4.9,32,0.00,,,-99.99,FreeWX-Wi 1.01,2013-07-18 01:48:00,
2013-07-17 18:53:00,70.7,39.4,-100.00,North,-999,0.0,4.9,32,0.00,,,-99.99,FreeWX-Wi 1.01,2013-07-18 01:53:00,
2013-07-17 18:58:00,70.5,39.2,-100.00,North,-999,0.0,2.7,32,0.00,,,-99.99,FreeWX-Wi 1.01,2013-07-18 01:58:00,
2013-07-17 19:03:00,70.3,39.0,-100.00,North,-999,0.0,3.1,32,0.00,,,-99.99,FreeWX-Wi 1.01,2013-07-18 02:03:00,
2013-07-17 19:08:00,70.2,38.8,-100.00,North,-999,0.0,2.7,32,0.00,,,-99.99,FreeWX-Wi 1.01,2013-07-18 02:08:00,
2013-07-17 19:13:00,70.2,38.8,-100.00,North,-999,0.0,2.7,32,0.00,,,-99.99,FreeWX-Wi 1.01,2013-07-18 02:13:00,
2013-07-17 19:18:00,70.2,38.8,-100.00,North,-999,0.0,0.0,32,0.00,,,-99.99,FreeWX-Wi 1.01,2013-07-18 02:18:00,
2013-07-17 19:23:00,69.8,38.7,-100.00,North,-999,0.0,3.6,32,0.00,,,-99.99,FreeWX-Wi 1.01,2013-07-18 02:23:00,
2013-07-17 19:28:00,69.6,39.2,-100.00,North,-999,0.0,0.0,33,0.00,,,-99.99,FreeWX-Wi 1.01,2013-07-18 02:28:00,
2013-07-17 19:33:00,69.6,39.2,-100.00,North,-999,0.0,0.0,33,0.00,,,-99.99,FreeWX-Wi 1.01,2013-07-18 02:33:00,
2013-07-17 19:38:00,69.4,39.0,-100.00,North,-999,0.0,0.0,33,0.00,,,-99.99,FreeWX-Wi 1.01,2013-07-18 02:38:00,
2013-07-17 19:43:00,69.3,38.8,-100.00,North,-999,0.0,2.7,33,0.00,,,-99.99,FreeWX-Wi 1.01,2013-07-18 02:43:00,
2013-07-17 19:48:00,69.1,38.8,-100.00,North,-999,0.0,2.7,33,0.00,,,-99.99,FreeWX-Wi 1.01,2013-07-18 02:48:00,
2013-07-17 19:53:00,68.9,38.7,-100.00,North,-999,0.0,0.0,33,0.00,,,-99.99,FreeWX-Wi 1.01,2013-07-18 02:53:00,
2013-07-17 19:58:00,68.7,38.5,-100.00,North,-999,0.0,0.0,33,0.00,,,-99.99,FreeWX-Wi 1.01,2013-07-18 02:58:00,
2013-07-17 20:03:00,68.4,38.1,-100.00,North,-999,0.0,0.0,33,0.00,,,-99.99,FreeWX-Wi 1.01,2013-07-18 03:03:00,
2013-07-17 20:08:00,67.6,37.6,-100.00,North,-999,0.0,0.0,33,0.00,,,-99.99,FreeWX-Wi 1.01,2013-07-18 03:08:00,
2013-07-17 20:13:00,66.9,37.6,-100.00,North,-999,0.0,0.0,34,0.00,,,-99.99,FreeWX-Wi 1.01,2013-07-18 03:13:00,
2013-07-17 20:18:00,66.2,37.0,-100.00,North,-999,0.0,0.0,34,0.00,,,-99.99,FreeWX-Wi 1.01,2013-07-18 03:18:00,
2013-07-17 20:24:00,65.7,36.5,-100.00,North,-999,0.0,0.0,34,0.00,,,-99.99,FreeWX-Wi 1.01,2013-07-18 03:24:00,
2013-07-17 20:29:00,65.3,36.1,-100.00,North,-999,0.0,0.0,34,0.00,,,-99.99,FreeWX-Wi 1.01,2013-07-18 03:29:00,
2013-07-17 20:34:00,64.8,36.5,-100.00,North,-999,0.0,0.0,35,0.00,,,-99.99,FreeWX-Wi 1.01,2013-07-18 03:34:00,
2013-07-17 20:39:00,64.6,36.3,-100.00,North,-999,0.0,0.0,35,0.00,,,-99.99,FreeWX-Wi 1.01,2013-07-18 03:39:00,
2013-07-17 20:44:00,64.4,36.1,-100.00,North,-999,0.0,0.0,35,0.00,,,-99.99,FreeWX-Wi 1.01,2013-07-18 03:44:00,
2013-07-17 20:49:00,63.9,35.6,-100.00,North,-999,0.0,0.0,35,0.00,,,-99.99,FreeWX-Wi 1.01,2013-07-18 03:49:00,
2013-07-17 20:54:00,63.5,35.4,-100.00,North,-999,0.0,0.0,35,0.00,,,-99.99,FreeWX-Wi 1.01,2013-07-18 03:54:00,
2013-07-17 20:59:00,63.3,35.2,-100.00,North,-999,0.0,0.0,35,0.00,,,-99.99,FreeWX-Wi 1.01,2013-07-18 03:59:00,
2013-07-17 21:09:00,62.8,34.7,-100.00,North,-999,0.0,0.0,35,0.00,,,-99.99,FreeWX-Wi 1.01,2013-07-18 04:09:00,
2013-07-17 21:14:00,62.6,35.2,-100.00,North,-999,0.0,0.0,36,0.00,,,-99.99,FreeWX-Wi 1.01,2013-07-18 04:14:00,
2013-07-17 21:19:00,62.6,35.2,-100.00,North,-999,0.0,0.0,36,0.00,,,-99.99,FreeWX-Wi 1.01,2013-07-18 04:19:00,
2013-07-17 21:29:00,61.9,34.7,-100.00,North,-999,0.0,0.0,36,0.00,,,-99.99,FreeWX-Wi 1.01,2013-07-18 04:29:00,
2013-07-17 21:34:00,61.5,35.1,-100.00,North,-999,0.0,0.0,37,0.00,,,-99.99,FreeWX-Wi 1.01,2013-07-18 04:34:00,
2013-07-17 21:39:00,61.3,34.9,-100.00,North,-999,0.0,0.0,37,0.00,,,-99.99,FreeWX-Wi 1.01,2013-07-18 04:39:00,
2013-07-17 21:44:00,61.2,34.7,-100.00,North,-999,0.0,0.0,37,0.00,,,-99.99,FreeWX-Wi 1.01,2013-07-18 04:44:00,
2013-07-17 21:49:00,60.8,34.3,-100.00,North,-999,0.0,0.0,37,0.00,,,-99.99,FreeWX-Wi 1.01,2013-07-18 04:49:00,
2013-07-17 21:54:00,60.3,33.8,-100.00,North,-999,0.0,0.0,37,0.00,,,-99.99,FreeWX-Wi 1.01,2013-07-18 04:54:00,
2013-07-17 21:59:00,59.7,34.2,-100.00,North,-999,0.0,0.0,38,0.00,,,-99.99,FreeWX-Wi 1.01,2013-07-18 04:59:00,
2013-07-17 22:04:00,59.5,35.2,-100.00,North,-999,0.0,0.0,40,0.00,,,-99.99,FreeWX-Wi 1.01,2013-07-18 05:04:00,
2013-07-17 22:09:00,59.4,35.6,-100.00,North,-999,0.0,0.0,41,0.00,,,-99.99,FreeWX-Wi 1.01,2013-07-18 05:09:00,
2013-07-17 22:14:00,59.4,35.6,-100.00,North,-999,0.0,0.0,41,0.00,,,-99.99,FreeWX-Wi 1.01,2013-07-18 05:14:00,
2013-07-17 22:19:00,59.2,35.4,-100.00,North,-999,0.0,0.0,41,0.00,,,-99.99,FreeWX-Wi 1.01,2013-07-18 05:19:00,
2013-07-17 22:24:00,59.4,35.6,-100.00,North,-999,0.0,0.0,41,0.00,,,-99.99,FreeWX-Wi 1.01,2013-07-18 05:24:00,
2013-07-17 22:29:00,59.0,35.4,-100.00,North,-999,0.0,0.0,41,0.00,,,-99.99,FreeWX-Wi 1.01,2013-07-18 05:29:00,
2013-07-17 22:34:00,59.0,36.0,-100.00,North,-999,0.0,0.0,42,0.00,,,-99.99,FreeWX-Wi 1.01,2013-07-18 05:34:00,
2013-07-17 22:39:00,59.0,36.0,-100.00,North,-999,0.0,0.0,42,0.00,,,-99.99,FreeWX-Wi 1.01,2013-07-18 05:39:00,
2013-07-17 22:44:00,58.8,35.8,-100.00,North,-999,0.0,0.0,42,0.00,,,-99.99,FreeWX-Wi 1.01,2013-07-18 05:44:00,
2013-07-17 22:49:00,58.5,35.4,-100.00,North,-999,0.0,0.0,42,0.00,,,-99.99,FreeWX-Wi 1.01,2013-07-18 05:49:00,
2013-07-17 22:54:00,58.5,36.0,-100.00,North,-999,0.0,0.0,43,0.00,,,-99.99,FreeWX-Wi 1.01,2013-07-18 05:54:00,
2013-07-17 22:59:00,58.3,36.0,-100.00,North,-999,0.0,0.0,43,0.00,,,-99.99,FreeWX-Wi 1.01,2013-07-18 05:59:00,
2013-07-17 23:04:00,58.5,36.7,-100.00,North,-999,0.0,0.0,44,0.00,,,-99.99,FreeWX-Wi 1.01,2013-07-18 06:04:00,
2013-07-17 23:09:00,58.3,36.5,-100.00,North,-999,0.0,0.0,44,0.00,,,-99.99,FreeWX-Wi 1.01,2013-07-18 06:09:00,
2013-07-17 23:14:00,58.1,36.3,-100.00,North,-999,0.0,0.0,44,0.00,,,-99.99,FreeWX-Wi 1.01,2013-07-18 06:14:00,
2013-07-17 23:19:00,57.9,36.7,-100.00,North,-999,0.0,0.0,45,0.00,,,-99.99,FreeWX-Wi 1.01,2013-07-18 06:19:00,
2013-07-17 23:24:00,57.7,36.5,-100.00,North,-999,0.0,0.0,45,0.00,,,-99.99,FreeWX-Wi 1.01,2013-07-18 06:24:00,
2013-07-17 23:29:00,57.7,36.5,-100.00,North,-999,0.0,0.0,45,0.00,,,-99.99,FreeWX-Wi 1.01,2013-07-18 06:29:00,
2013-07-17 23:34:00,57.6,36.3,-100.00,North,-999,0.0,0.0,45,0.00,,,-99.99,FreeWX-Wi 1.01,2013-07-18 06:34:00,
2013-07-17 23:39:00,57.6,36.9,-100.00,North,-999,0.0,0.0,46,0.00,,,-99.99,FreeWX-Wi 1.01,2013-07-18 06:39:00,
2013-07-17 23:44:00,57.4,36.9,-100.00,North,-999,0.0,0.0,46,0.00,,,-99.99,FreeWX-Wi 1.01,2013-07-18 06:44:00,
2013-07-17 23:49:00,57.2,36.7,-100.00,North,-999,0.0,0.0,46,0.00,,,-99.99,FreeWX-Wi 1.01,2013-07-18 06:49:00,
2013-07-17 23:54:00,57.2,36.7,-100.00,North,-999,0.0,0.0,46,0.00,,,-99.99,FreeWX-Wi 1.01,2013-07-18 06:54:00,
2013-07-17 23:59:00,57.0,37.0,-100.00,North,-999,0.0,0.0,47,0.00,,,-99.99,FreeWX-Wi 1.01,2013-07-18 06:59:00,